This is the latest recevied weather packets stored in our database for station/object IT9CNT. If no packets are shown the sender has not sent any weather packets the latest 10 day(s).
| Time | Temp. | Humidity | Pressure | Rain* | Wind** | Luminosity | Snow |
|---|---|---|---|---|---|---|---|
| 1787566383 | 32.78° C | 65% | 1013.6 hPa | 0 mm | - | - | - |
| 1787566324 | 32.22° C | 65% | 1013.8 hPa | 0 mm | - | - | - |
| 1787566264 | 32.22° C | 64% | 1013.9 hPa | 0 mm | - | - | - |
| 1787566203 | 33.33° C | 65% | 1013.6 hPa | 0 mm | - | - | - |
| 1787566144 | 33.33° C | 65% | 1014.1 hPa | 0 mm | - | - | - |
| 1787566084 | 33.33° C | 64% | 1013.9 hPa | 0 mm | - | - | - |
| 1787566024 | 33.33° C | 64% | 1013.8 hPa | 0 mm | - | - | - |
| 1787565963 | 33.33° C | 64% | 1013.7 hPa | 0 mm | - | - | - |
| 1787565904 | 33.33° C | 64% | 1014 hPa | 0 mm | - | - | - |
| 1787565843 | 32.78° C | 65% | 1013.8 hPa | 0 mm | - | - | - |
| 1787565783 | 32.78° C | 65% | 1013.7 hPa | 0 mm | - | - | - |
| 1787565724 | 32.78° C | 65% | 1013.9 hPa | 0 mm | - | - | - |
| 1787565663 | 32.78° C | 66% | 1013.8 hPa | 0 mm | - | - | - |
| 1787565604 | 32.22° C | 65% | 1013.8 hPa | 0 mm | - | - | - |
| 1787565544 | 32.22° C | 65% | 1013.9 hPa | 0 mm | - | - | - |
| 1787565483 | 32.22° C | 65% | 1013.5 hPa | 0 mm | - | - | - |
| 1787565423 | 33.33° C | 60% | 1014.1 hPa | 0 mm | - | - | - |
| 1787565363 | 33.33° C | 60% | 1013.9 hPa | 0 mm | - | - | - |
| 1787565304 | 32.22° C | 60% | 1013.7 hPa | 0 mm | - | - | - |
| 1787565243 | 32.22° C | 60% | 1013.9 hPa | 0 mm | - | - | - |
| 1787565183 | 32.22° C | 60% | 1013.8 hPa | 0 mm | - | - | - |
| 1787565123 | 32.78° C | 60% | 1013.6 hPa | 0 mm | - | - | - |
| 1787565063 | 32.78° C | 60% | 1013.8 hPa | 0 mm | - | - | - |
| 1787565003 | 32.78° C | 60% | 1013.8 hPa | 0 mm | - | - | - |
| 1787564943 | 32.78° C | 61% | 1013.7 hPa | 0 mm | - | - | - |
* Rain latest hour (hover to see other rain measurements)
** Current wind speed in m/s (hover to see current wind gust speed)